SCP
0 0 0 0 0 0 0 0 0 0 0 0 0 0 0 1 1 0 0 0 0 0 0 0 0 0 0 0 0 0 0 0 0 0 0 0 0 0 0 0 0 0 0
0 0 0 0 0 0 0 0 0 0 0 0 0 0 0 0 1 1 0 0 0 0 0 0 0 0 0 0 0 0 0 0 0 0 0 0 0 0 0 0 0 0 0
0 0 0 0 0 0 0 0 0 0 0 0 0 0 0 0 1 1 0 0 0 0 0 0 0 0 0 0 0 0 0 0 0 0 0 0 0 0 0 0 0 0 0
0 0 0 0 0 0 0 0 0 0 0 0 0 0 0 0 0 0 0 0 0 0 0 0 0 0 0 0 0 0 0 0 0 0 0 0 0 0 0 0 0 0 0
0 0 0 0 0 1 1 0 0 0 0 0 0 0 0 0 0 0 0 0 0 0 0 0 0 0 0 0 0 0 0 0 0 0 0 0 0 0 0 0 0 0 0
0 0 0 0 0 0 1 0 0 0 0 0 0 0 0 0 0 0 0 0 0 0 0 0 0 0 0 0 0 0 0 0 0 0 0 0 0 0 0 0 0 0 0
0 0 0 0 0 0 0 0 0 0 0 0 0 0 0 0 0 0 0 0 0 0 0 0 0 0 0 0 0 0 0 0 0 0 0 0 0 0 0 0 0 0 0
0 0 0 0 0 0 0 0 0 0 0 0 0 0 0 0 0 0 0 0 0 0 0 0 0 0 0 0 0 0 0 0 0 0 0 0 0 0 0 0 0 0 0
0 0 0 0 0 0 0 0 0 0 0 0 0 0 0 0 0 0 0 0 0 0 0 0 0 0 0 0 0 0 0 0 0 0 0 0 0 0 0 0 0 0 0
0 0 0 0 0 0 0 0 0 0 0 0 0 0 0 0 0 0 0 0 0 0 0 0 0 0 0 0 0 0 0 0 0 0 0 0 0 0 0 0 0 0 0
0 0 0 0 0 0 0 0 0 0 0 0 0 0 0 0 0 0 0 0 0 0 0 0 0 0 0 0 0 0 0 0 0 0 0 0 0 0 0 0 0 0 0
0 0 0 0 0 0 0 0 0 0 0 0 0 0 0 0 0 0 0 0 0 0 0 0 0 0 0 0 0 0 0 0 0 0 0 0 0 0 0 0 0 0 0
0 0 0 0 0 0 0 0 0 0 0 0 0 0 0 0 0 0 0 0 0 0 0 0 0 0 0 0 0 0 0 0 0 0 0 0 0 0 0 0 0 0 0
0 0 0 0 0 0 0 0 0 0 0 0 0 0 0 0 0 0 0 0 0 0 0 0 0 0 0 0 0 0 0 0 0 0 0 0 0 0 0 0 0 0 0
0 0 0 0 0 0 0 0 0 0 0 0 0 0 0 0 0 0 0 0 0 0 0 0 0 0 0 0 0 0 0 0 0 0 0 0 0 0 0 0 0 0 0
0 0 0 0 0 0 0 0 0 0 0 0 0 0 0 0 0 0 0 0 0 0 0 0 0 0 0 0 0 0 0 0 0 0 0 0 0 0 0 0 0 0 0
0 0 0 0 0 0 0 0 0 0 0 0 0 0 0 0 0 0 0 0 0 0 0 0 0 0 0 0 0 0 0 0 0 0 0 0 0 0 0 0 0 0 0
0 0 0 0 0 0 0 0 0 0 0 0 0 0 0 0 0 0 0 0 0 0 0 0 0 0 0 0 0 0 0 0 0 0 0 0 0 0 0 0 0 0 0
0 0 0 0 0 0 0 0 0 0 0 0 0 0 0 0 0 0 0 0 0 0 0 0 0 0 0 0 0 0 0 0 0 0 0 0 0 0 0 0 0 0 0
0 -0 0 0 0 -0 0 0 0 0 0 0 0 0 0 0 0 0 0 0 0 0 0 0 0 0 0 0 0 0 0 0 0 0 0 0 0 0 0 0 0 0 0
-0 -0 -0 0 0 -0 0 0 0 0 0 0 -0 0 0 0 0 -0 -0 -0 0 0 0 0 0 0 0 0 0 0 0 0 0 0 0 0 0 0 0 0 0 0 0
-0 0 -0 -0 -0 -0 -0 -0 0 -0 -0 -0 -0 -0 0 -0 -0 -0 0 -0 -0 0 0 0 0 0 0 0 0 0 0 0 0 0 0 0 0 0 0 0 0 0 0
-0 0 0 0 0 -0 0 0 0 0 0 0 0 0 0 -0 -0 -0 -0 -0 0 -0 0 0 0 0 0 0 0 0 0 0 0 0 0 0 0 0 0 0 0 0 0
-0 -0 0 0 0 0 0 0 -0 -0 -0 -0 -0 -0 -0 -0 -0 -0 -0 -0 -0 -0 0 0 0 0 0 0 0 0 0 0 0 0 0 0 0 0 0 0 0 0 0
-0 -0 -0 0 0 0 0 -0 -0 -0 -0 0 0 0 0 0 -0 -0 -0 -0 -0 0 0 0 0 0 0 0 0 0 0 -0 0 0 0 0 0 0 0 0 0 0 0
-0 -0 -0 -0 -0 -0 -0 -0 -0 -0 0 0 0 0 0 0 0 0 0 0 0 0 0 0 0 0 0 0 0 0 0 0 0 0 0 0 0 0 0 0 0 0 0
Wind_Speed_500mb
68 65 65 69 71 70 76 73 69 65 58 55 52 47 46 42 47 47 42 39 40 37 35 33 32 31 31 27 30 34 31 27 29 24 22 19 19 21 24 26 28 30 28
75 73 68 71 68 69 75 79 72 70 65 59 56 54 57 54 49 55 51 42 42 41 38 37 39 37 40 38 38 37 39 32 31 30 30 29 27 27 30 30 28 28 28
71 70 65 74 75 68 68 72 76 74 72 68 66 69 63 58 56 59 54 46 45 43 41 42 40 38 42 37 37 35 36 32 32 36 35 31 29 28 28 29 32 32 31
73 71 73 72 74 73 63 64 71 73 76 74 75 70 65 64 58 58 59 51 46 47 48 43 45 45 41 37 40 36 36 40 41 36 36 34 33 28 29 31 33 34 34
66 68 77 79 72 66 59 49 58 61 61 70 75 69 68 65 61 59 62 59 53 50 55 56 48 47 46 44 43 40 38 39 38 37 36 35 34 31 30 31 36 37 39
59 68 67 66 67 64 62 62 56 61 49 51 65 76 70 73 68 63 59 62 62 58 55 48 45 43 41 44 45 42 39 38 38 40 41 39 37 34 34 35 35 38 41
45 51 54 64 67 70 70 71 63 63 64 55 54 63 75 81 75 69 62 62 65 63 57 52 51 50 44 44 42 42 43 41 41 42 44 39 37 38 36 34 36 38 39
25 33 41 42 52 60 67 67 56 63 65 69 70 65 68 72 75 74 69 68 66 64 59 57 55 51 49 46 44 42 43 44 45 44 43 44 43 40 38 37 34 33 34
3 9 21 28 32 38 41 46 56 59 66 74 69 73 62 73 66 76 71 65 65 68 62 59 58 55 46 52 54 50 46 49 50 48 48 47 43 42 41 41 40 39 37
14 10 4 3 13 13 19 23 36 47 54 67 63 65 80 74 67 58 64 65 64 67 62 62 63 66 63 58 56 53 54 49 49 49 44 41 42 43 41 37 36 33 28
5 6 8 9 10 6 13 20 25 17 23 35 35 39 52 57 63 57 61 59 60 64 66 58 58 61 66 68 63 58 52 49 43 42 42 43 45 39 38 32 28 27 28
5 3 2 3 4 5 5 7 19 25 23 21 25 23 18 19 14 29 23 30 34 38 44 50 56 53 59 63 57 55 48 43 35 31 29 35 36 34 30 24 25 21 18
7 10 9 8 6 4 5 5 6 15 21 20 17 14 12 10 8 5 10 21 32 34 37 35 28 37 42 32 32 31 32 33 33 29 27 30 28 17 10 7 9 9 8
14 18 11 9 8 11 10 8 7 9 11 11 13 13 10 9 9 13 23 33 29 28 28 26 27 29 23 20 18 19 16 18 19 18 15 13 13 18 17 14 11 12 10
18 18 14 11 10 10 11 10 9 7 6 6 7 9 10 12 12 16 17 15 13 14 15 14 14 14 14 15 15 12 12 15 18 17 18 22 23 18 16 14 12 11 12
16 13 16 15 9 8 8 7 11 10 11 8 5 6 5 12 17 21 22 20 18 17 15 13 13 15 19 21 19 20 20 19 19 19 19 18 17 15 15 19 19 19 21
24 19 14 12 10 7 6 7 4 9 16 19 14 12 13 13 22 23 21 19 18 17 16 16 15 13 11 12 15 16 14 15 15 17 18 18 17 19 20 23 23 18 16
26 23 19 13 10 8 10 11 11 8 9 11 13 14 14 15 17 17 15 12 13 15 17 14 10 8 6 9 12 10 12 14 16 18 20 21 20 22 26 24 20 15 13
28 26 21 17 13 11 12 10 7 7 7 8 10 9 11 14 16 15 11 9 10 13 12 9 5 3 5 7 10 10 13 17 19 19 20 24 28 27 24 19 14 9 9
31 25 21 18 18 17 14 13 7 3 3 6 8 9 9 11 15 16 15 14 14 15 16 14 10 9 7 7 11 13 14 16 18 22 27 29 26 21 17 17 13 10 7
29 29 26 23 21 19 15 13 10 11 16 13 11 13 14 14 15 19 18 16 14 11 9 8 7 5 7 8 12 15 17 20 20 21 21 21 24 21 14 15 15 10 9
29 28 26 24 25 23 19 17 15 15 15 11 9 11 15 18 17 16 15 15 11 12 8 7 10 8 10 10 14 18 20 21 20 19 18 21 21 18 16 15 14 11 11
31 27 24 26 26 22 17 15 16 14 13 13 11 9 9 15 14 13 13 14 9 11 8 8 10 15 16 12 11 20 19 16 14 13 15 18 18 15 19 15 15 13 10
33 29 29 29 30 28 25 21 19 17 14 19 18 17 12 12 13 14 13 14 11 10 10 6 7 12 14 14 11 11 21 21 18 17 16 17 18 21 20 19 17 16 16
25 19 22 27 34 34 34 30 28 23 21 17 16 23 21 19 19 18 18 16 15 15 13 11 13 11 13 17 18 14 12 19 19 18 18 20 23 26 25 22 21 22 17
30 25 19 22 29 29 25 28 28 23 21 19 17 19 20 24 26 27 28 30 29 28 26 24 23 22 20 18 20 20 21 20 23 23 20 17 25 31 30 25 20 22 19
Wind_Direction_500mb
240 242 246 238 235 231 233 234 237 237 239 238 235 234 238 241 243 247 257 252 247 249 252 252 254 256 259 255 255 257 258 262 262 268 271 272 264 256 258 262 267 268 274
241 245 248 238 236 235 236 235 236 237 237 236 239 243 243 248 252 240 246 245 246 251 257 258 255 259 261 261 260 259 258 259 263 270 273 272 267 259 261 264 263 264 259
243 241 244 240 241 240 241 240 238 240 241 239 240 242 249 253 253 237 240 246 247 251 253 261 264 267 258 257 258 255 258 264 267 272 276 284 280 271 265 266 275 274 261
246 241 247 247 247 243 248 248 251 244 241 241 241 243 245 247 244 239 237 240 246 260 257 257 266 263 259 255 255 259 265 269 273 277 278 277 282 277 275 275 274 278 279
251 253 249 254 253 247 248 250 253 255 249 246 244 245 243 241 239 238 241 241 252 255 252 259 258 260 252 254 259 264 268 271 263 266 268 276 282 285 287 278 275 278 277
249 248 252 252 254 242 243 239 241 238 239 246 249 244 245 243 243 245 245 250 253 255 258 255 253 253 248 253 261 267 267 264 265 266 267 270 279 284 288 283 280 277 277
246 248 252 254 253 248 244 244 230 242 228 240 240 244 246 244 243 243 246 250 251 253 255 251 248 249 252 257 263 261 261 264 267 269 270 272 273 286 285 282 276 270 270
247 245 245 250 248 245 247 251 239 229 241 235 233 237 237 237 241 243 241 247 250 251 253 249 247 247 248 253 260 257 264 267 265 266 273 280 283 282 280 282 278 273 269
257 250 244 243 239 245 252 251 233 240 235 225 240 239 253 249 250 245 242 243 248 250 250 245 245 248 253 253 253 255 260 264 268 270 273 275 273 271 276 277 276 277 279
78 70 80 210 227 232 240 248 242 238 238 239 251 254 260 254 247 254 242 240 243 249 249 250 251 249 249 255 255 258 263 268 268 271 269 268 268 270 275 278 278 285 278
82 29 41 67 89 101 210 235 203 229 250 245 265 290 261 243 245 252 252 247 248 248 250 252 256 256 253 254 255 256 263 265 262 259 264 268 271 273 274 272 271 266 266
201 297 329 133 130 101 94 188 233 238 218 247 279 263 237 167 212 247 253 264 271 263 260 264 269 263 257 251 253 258 257 252 253 257 264 260 268 260 258 258 254 253 259
231 276 250 222 208 175 119 118 167 202 235 251 233 237 223 143 168 268 292 258 258 263 258 254 244 234 244 235 234 238 241 251 254 249 249 247 246 242 214 176 159 145 153
256 277 237 214 200 197 197 210 202 193 203 210 230 235 237 208 181 159 213 239 238 232 239 232 231 226 230 229 240 239 244 241 236 223 221 209 181 156 145 140 145 139 142
244 253 208 182 160 146 142 140 153 164 177 204 235 231 221 209 202 205 205 199 191 188 198 199 187 183 178 176 183 172 196 202 201 184 169 159 153 155 151 150 146 133 123
195 185 189 175 162 140 133 138 125 151 177 211 222 140 157 161 158 157 157 156 156 160 168 180 183 158 144 135 136 136 152 165 154 147 156 163 170 168 157 146 143 127 121
181 178 181 159 167 178 156 142 125 126 131 132 135 124 118 135 140 139 141 141 142 142 138 145 151 153 158 159 167 173 183 178 171 169 172 173 168 160 158 154 146 140 130
184 188 199 167 144 146 142 135 113 110 143 147 144 146 149 154 155 156 152 151 146 148 153 163 178 185 198 205 202 194 188 179 171 165 164 162 163 159 154 153 151 149 157
185 200 201 194 185 172 170 159 148 149 173 195 200 189 182 188 198 189 179 165 164 170 172 173 167 142 144 153 161 163 159 162 163 167 170 162 155 153 154 159 160 152 160
190 199 200 194 186 187 184 184 176 147 170 165 177 187 199 205 202 190 179 162 144 137 138 136 129 122 132 154 176 173 177 174 168 162 160 160 160 160 162 174 181 188 158
195 195 183 180 183 181 184 178 154 135 124 112 113 123 132 142 153 158 161 168 173 168 168 179 176 181 181 169 168 173 170 166 161 163 173 176 172 169 177 183 184 187 204
186 182 188 193 180 176 175 166 160 160 159 157 135 160 162 158 160 175 190 181 188 188 187 204 209 213 162 166 177 169 159 157 161 170 174 186 189 191 201 199 198 198 200
182 184 183 176 170 176 191 197 190 203 217 219 221 230 214 196 189 189 193 201 203 192 199 210 197 189 178 165 173 198 197 189 179 182 192 193 193 196 194 206 214 219 219
174 183 189 192 197 201 197 208 225 216 243 244 234 223 211 191 187 185 193 202 190 194 222 232 210 209 212 210 207 208 201 196 208 225 221 212 210 210 214 219 226 234 231
187 194 210 219 219 224 227 225 231 244 230 223 220 228 227 220 211 202 196 195 198 209 206 205 197 194 208 212 216 221 212 215 212 208 222 225 221 219 223 230 243 243 243
209 216 225 236 231 218 209 210 213 225 229 232 232 240 247 244 240 242 234 232 236 239 239 236 235 224 211 205 206 207 208 203 207 217 222 229 223 223 227 226 234 242 257
Wind_Speed_850mb
68 65 65 69 71 70 76 73 69 65 58 55 52 47 46 42 47 47 42 39 40 37 35 33 32 31 31 27 30 34 31 27 29 24 22 19 19 21 24 26 28 30 28
75 73 68 71 68 69 75 79 72 70 65 59 56 54 57 54 49 55 51 42 42 41 38 37 39 37 40 38 38 37 39 32 31 30 30 29 27 27 30 30 28 28 28
71 70 65 74 75 68 68 72 76 74 72 68 66 69 63 58 56 59 54 46 45 43 41 42 40 38 42 37 37 35 36 32 32 36 35 31 29 28 28 29 32 32 31
73 71 73 72 74 73 63 64 71 73 76 74 75 70 65 64 58 58 59 51 46 47 48 43 45 45 41 37 40 36 36 40 41 36 36 34 33 28 29 31 33 34 34
66 68 77 79 72 66 59 49 58 61 61 70 75 69 68 65 61 59 62 59 53 50 55 56 48 47 46 44 43 40 38 39 38 37 36 35 34 31 30 31 36 37 39
59 68 67 66 67 64 62 62 56 61 49 51 65 76 70 73 68 63 59 62 62 58 55 48 45 43 41 44 45 42 39 38 38 40 41 39 37 34 34 35 35 38 41
45 51 54 64 67 70 70 71 63 63 64 55 54 63 75 81 75 69 62 62 65 63 57 52 51 50 44 44 42 42 43 41 41 42 44 39 37 38 36 34 36 38 39
25 33 41 42 52 60 67 67 56 63 65 69 70 65 68 72 75 74 69 68 66 64 59 57 55 51 49 46 44 42 43 44 45 44 43 44 43 40 38 37 34 33 34
3 9 21 28 32 38 41 46 56 59 66 74 69 73 62 73 66 76 71 65 65 68 62 59 58 55 46 52 54 50 46 49 50 48 48 47 43 42 41 41 40 39 37
14 10 4 3 13 13 19 23 36 47 54 67 63 65 80 74 67 58 64 65 64 67 62 62 63 66 63 58 56 53 54 49 49 49 44 41 42 43 41 37 36 33 28
5 6 8 9 10 6 13 20 25 17 23 35 35 39 52 57 63 57 61 59 60 64 66 58 58 61 66 68 63 58 52 49 43 42 42 43 45 39 38 32 28 27 28
5 3 2 3 4 5 5 7 19 25 23 21 25 23 18 19 14 29 23 30 34 38 44 50 56 53 59 63 57 55 48 43 35 31 29 35 36 34 30 24 25 21 18
7 10 9 8 6 4 5 5 6 15 21 20 17 14 12 10 8 5 10 21 32 34 37 35 28 37 42 32 32 31 32 33 33 29 27 30 28 17 10 7 9 9 8
14 18 11 9 8 11 10 8 7 9 11 11 13 13 10 9 9 13 23 33 29 28 28 26 27 29 23 20 18 19 16 18 19 18 15 13 13 18 17 14 11 12 10
18 18 14 11 10 10 11 10 9 7 6 6 7 9 10 12 12 16 17 15 13 14 15 14 14 14 14 15 15 12 12 15 18 17 18 22 23 18 16 14 12 11 12
16 13 16 15 9 8 8 7 11 10 11 8 5 6 5 12 17 21 22 20 18 17 15 13 13 15 19 21 19 20 20 19 19 19 19 18 17 15 15 19 19 19 21
24 19 14 12 10 7 6 7 4 9 16 19 14 12 13 13 22 23 21 19 18 17 16 16 15 13 11 12 15 16 14 15 15 17 18 18 17 19 20 23 23 18 16
26 23 19 13 10 8 10 11 11 8 9 11 13 14 14 15 17 17 15 12 13 15 17 14 10 8 6 9 12 10 12 14 16 18 20 21 20 22 26 24 20 15 13
28 26 21 17 13 11 12 10 7 7 7 8 10 9 11 14 16 15 11 9 10 13 12 9 5 3 5 7 10 10 13 17 19 19 20 24 28 27 24 19 14 9 9
31 25 21 18 18 17 14 13 7 3 3 6 8 9 9 11 15 16 15 14 14 15 16 14 10 9 7 7 11 13 14 16 18 22 27 29 26 21 17 17 13 10 7
29 29 26 23 21 19 15 13 10 11 16 13 11 13 14 14 15 19 18 16 14 11 9 8 7 5 7 8 12 15 17 20 20 21 21 21 24 21 14 15 15 10 9
29 28 26 24 25 23 19 17 15 15 15 11 9 11 15 18 17 16 15 15 11 12 8 7 10 8 10 10 14 18 20 21 20 19 18 21 21 18 16 15 14 11 11
31 27 24 26 26 22 17 15 16 14 13 13 11 9 9 15 14 13 13 14 9 11 8 8 10 15 16 12 11 20 19 16 14 13 15 18 18 15 19 15 15 13 10
33 29 29 29 30 28 25 21 19 17 14 19 18 17 12 12 13 14 13 14 11 10 10 6 7 12 14 14 11 11 21 21 18 17 16 17 18 21 20 19 17 16 16
25 19 22 27 34 34 34 30 28 23 21 17 16 23 21 19 19 18 18 16 15 15 13 11 13 11 13 17 18 14 12 19 19 18 18 20 23 26 25 22 21 22 17
30 25 19 22 29 29 25 28 28 23 21 19 17 19 20 24 26 27 28 30 29 28 26 24 23 22 20 18 20 20 21 20 23 23 20 17 25 31 30 25 20 22 19
Wind_Direction_850mb
240 242 246 238 235 231 233 234 237 237 239 238 235 234 238 241 243 247 257 252 247 249 252 252 254 256 259 255 255 257 258 262 262 268 271 272 264 256 258 262 267 268 274
241 245 248 238 236 235 236 235 236 237 237 236 239 243 243 248 252 240 246 245 246 251 257 258 255 259 261 261 260 259 258 259 263 270 273 272 267 259 261 264 263 264 259
243 241 244 240 241 240 241 240 238 240 241 239 240 242 249 253 253 237 240 246 247 251 253 261 264 267 258 257 258 255 258 264 267 272 276 284 280 271 265 266 275 274 261
246 241 247 247 247 243 248 248 251 244 241 241 241 243 245 247 244 239 237 240 246 260 257 257 266 263 259 255 255 259 265 269 273 277 278 277 282 277 275 275 274 278 279
251 253 249 254 253 247 248 250 253 255 249 246 244 245 243 241 239 238 241 241 252 255 252 259 258 260 252 254 259 264 268 271 263 266 268 276 282 285 287 278 275 278 277
249 248 252 252 254 242 243 239 241 238 239 246 249 244 245 243 243 245 245 250 253 255 258 255 253 253 248 253 261 267 267 264 265 266 267 270 279 284 288 283 280 277 277
246 248 252 254 253 248 244 244 230 242 228 240 240 244 246 244 243 243 246 250 251 253 255 251 248 249 252 257 263 261 261 264 267 269 270 272 273 286 285 282 276 270 270
247 245 245 250 248 245 247 251 239 229 241 235 233 237 237 237 241 243 241 247 250 251 253 249 247 247 248 253 260 257 264 267 265 266 273 280 283 282 280 282 278 273 269
257 250 244 243 239 245 252 251 233 240 235 225 240 239 253 249 250 245 242 243 248 250 250 245 245 248 253 253 253 255 260 264 268 270 273 275 273 271 276 277 276 277 279
78 70 80 210 227 232 240 248 242 238 238 239 251 254 260 254 247 254 242 240 243 249 249 250 251 249 249 255 255 258 263 268 268 271 269 268 268 270 275 278 278 285 278
82 29 41 67 89 101 210 235 203 229 250 245 265 290 261 243 245 252 252 247 248 248 250 252 256 256 253 254 255 256 263 265 262 259 264 268 271 273 274 272 271 266 266
201 297 329 133 130 101 94 188 233 238 218 247 279 263 237 167 212 247 253 264 271 263 260 264 269 263 257 251 253 258 257 252 253 257 264 260 268 260 258 258 254 253 259
231 276 250 222 208 175 119 118 167 202 235 251 233 237 223 143 168 268 292 258 258 263 258 254 244 234 244 235 234 238 241 251 254 249 249 247 246 242 214 176 159 145 153
256 277 237 214 200 197 197 210 202 193 203 210 230 235 237 208 181 159 213 239 238 232 239 232 231 226 230 229 240 239 244 241 236 223 221 209 181 156 145 140 145 139 142
244 253 208 182 160 146 142 140 153 164 177 204 235 231 221 209 202 205 205 199 191 188 198 199 187 183 178 176 183 172 196 202 201 184 169 159 153 155 151 150 146 133 123
195 185 189 175 162 140 133 138 125 151 177 211 222 140 157 161 158 157 157 156 156 160 168 180 183 158 144 135 136 136 152 165 154 147 156 163 170 168 157 146 143 127 121
181 178 181 159 167 178 156 142 125 126 131 132 135 124 118 135 140 139 141 141 142 142 138 145 151 153 158 159 167 173 183 178 171 169 172 173 168 160 158 154 146 140 130
184 188 199 167 144 146 142 135 113 110 143 147 144 146 149 154 155 156 152 151 146 148 153 163 178 185 198 205 202 194 188 179 171 165 164 162 163 159 154 153 151 149 157
185 200 201 194 185 172 170 159 148 149 173 195 200 189 182 188 198 189 179 165 164 170 172 173 167 142 144 153 161 163 159 162 163 167 170 162 155 153 154 159 160 152 160
190 199 200 194 186 187 184 184 176 147 170 165 177 187 199 205 202 190 179 162 144 137 138 136 129 122 132 154 176 173 177 174 168 162 160 160 160 160 162 174 181 188 158
195 195 183 180 183 181 184 178 154 135 124 112 113 123 132 142 153 158 161 168 173 168 168 179 176 181 181 169 168 173 170 166 161 163 173 176 172 169 177 183 184 187 204
186 182 188 193 180 176 175 166 160 160 159 157 135 160 162 158 160 175 190 181 188 188 187 204 209 213 162 166 177 169 159 157 161 170 174 186 189 191 201 199 198 198 200
182 184 183 176 170 176 191 197 190 203 217 219 221 230 214 196 189 189 193 201 203 192 199 210 197 189 178 165 173 198 197 189 179 182 192 193 193 196 194 206 214 219 219
174 183 189 192 197 201 197 208 225 216 243 244 234 223 211 191 187 185 193 202 190 194 222 232 210 209 212 210 207 208 201 196 208 225 221 212 210 210 214 219 226 234 231
187 194 210 219 219 224 227 225 231 244 230 223 220 228 227 220 211 202 196 195 198 209 206 205 197 194 208 212 216 221 212 215 212 208 222 225 221 219 223 230 243 243 243
209 216 225 236 231 218 209 210 213 225 229 232 232 240 247 244 240 242 234 232 236 239 239 236 235 224 211 205 206 207 208 203 207 217 222 229 223 223 227 226 234 242 257